User: anonymous
Location: Unspecified
(0.0000°N, 0.0000°E)
Time: 07:57:35
(UTC+02:00)
Language:

Meteor PRIRODA - Orbit

View from above orbital plane
View from above orbital plane
View from above satellite
View from above satellite

Ground track
Ground track

The orbit data is extracted from the following two-line orbital elements,

1 12585U 81065A   14202.62686381  .00000804  00000-0  47143-4 0  8477
2 12585 097.3195 192.7945 0018461 142.2899 352.5982 15.14334470801206
Epoch (UTC): 21 July 2014 15:02:41
Eccentricity: 0.0018461
inclination: 97.3195°
perigee height: 510 km
apogee height: 536 km
right ascension of ascending node: 192.7945°
argument of perigee: 142.2899°
revolutions per day: 15.14334470
mean anomaly at epoch: 352.5982°
orbit number at epoch: 80120

The dashed part of the orbit path shows where the satellite is in the earth's shadow,  

DLR